Cross City, FL

8:58 PM EST on January 20, 2018 (GMT -0500)
Cross City

Weather History for KCTY - January, 2014

Change the Weather History Date:

Monday, January 13, 2014

  Actual Average Record
Temperature  
Mean Temperature 54 °F 53 °F  
Max Temperature 72 °F 66 °F 82 °F (2013)
Min Temperature 36 °F 40 °F 21 °F (2011)
Degree Days  
Heating Degree Days 11 12  
Month to date heating degree days 172 167  
Since 1 July heating degree days 487 672  
Cooling Degree Days 0 0  
Month to date cooling degree days 6 0  
Year to date cooling degree days 6 0  
Growing Degree Days 4 (Base 50)    
Moisture  
Dew Point 49 °F    
Average Humidity 83    
Maximum Humidity 100    
Minimum Humidity 53    
Precipitation  
Precipitation 0.46 in 0.13 in 0.84 in (2009)
Month to date precipitation 3.33 1.65  
Year to date precipitation 3.33 1.65  
Sea Level Pressure  
Sea Level Pressure 30.08 in    
Wind  
Wind Speed 5 mph (South)    
Max Wind Speed 20 mph    
Max Gust Speed 23 mph    
T = Trace of Precipitation, MM = Missing Value Source: NWS Daily Summary

Daily Weather History Graph

Daily Weather History Graph

Search for Another Location

Airport or City:

Trip Planner

Search our weather history database for the weather conditions in past years. The results will help you decide how hot, cold, wet, or windy it might be!

Date:

Astronomy

Jan. 13, 2014 Rise Set
Actual Time 7:28 AM EST 5:54 PM EST
Civil Twilight 7:02 AM EST 6:19 PM EST
Nautical Twilight 6:33 AM EST 6:49 PM EST
Astronomical Twilight 6:04 AM EST 7:17 PM EST
Moon 4:06 PM EST (1/13) 5:17 AM EST (1/13)
Length of Visible Light 11h 17m
Length of Day
10h 25m
Waxing Gibbous, 95% of the Moon is Illuminated
Jan 13
Waxing Gibbous
Jan 15
Full
Jan 24
Last Quarter
Jan 30
New
Feb 6
First Quarter

Hourly Weather History & Observations

Time (EST) Temp. Dew Point Humidity Pressure Visibility Wind Dir Wind Speed Gust Speed Precip Events Conditions
12:53 AM 37.9 °F 36.0 °F 93% 30.18 in - Calm Calm - N/A   Unknown
1:53 AM 39.0 °F 37.0 °F 93% 30.18 in - Calm Calm - N/A   Unknown
2:53 AM 37.9 °F 37.0 °F 97% 30.16 in - Calm Calm - N/A   Unknown
3:53 AM 37.0 °F 35.1 °F 93% 30.16 in - Calm Calm - N/A   Unknown
4:53 AM 36.0 °F 34.0 °F 93% 30.16 in - Calm Calm - N/A   Unknown
5:53 AM 37.0 °F 35.1 °F 93% 30.15 in - Calm Calm - N/A   Unknown
6:53 AM 37.0 °F 35.1 °F 93% 30.15 in - Calm Calm - N/A   Unknown
7:53 AM 39.0 °F 37.0 °F 93% 30.16 in - Calm Calm - N/A   Unknown
8:53 AM 48.0 °F 43.0 °F 83% 30.16 in - Calm Calm - N/A   Unknown
9:53 AM 55.9 °F 46.0 °F 69% 30.16 in - ESE 4.6 mph - N/A   Unknown
10:53 AM 63.0 °F 48.9 °F 60% 30.15 in - SE 4.6 mph - N/A   Unknown
11:53 AM 70.0 °F 52.0 °F 53% 30.10 in - Variable 5.8 mph - N/A   Unknown
12:53 PM 71.1 °F 57.0 °F 61% 30.07 in - South 11.5 mph 21.9 mph N/A   Unknown
1:53 PM 71.1 °F 59.0 °F 66% 30.05 in - SSW 16.1 mph 23.0 mph N/A   Unknown
2:53 PM 69.1 °F 57.9 °F 68% 30.03 in - South 13.8 mph - N/A   Unknown
3:53 PM 68.0 °F 57.9 °F 70% 30.01 in - SSW 8.1 mph - N/A   Unknown
4:53 PM 66.9 °F 59.0 °F 76% 30.01 in - South 8.1 mph - N/A   Unknown
5:53 PM 64.0 °F 60.1 °F 87% 30.01 in - SSW 6.9 mph - N/A   Unknown
6:53 PM 63.0 °F 60.1 °F 90% 30.01 in - SSW 4.6 mph - N/A   Unknown
7:53 PM 63.0 °F 61.0 °F 93% 30.01 in - SSE 3.5 mph - 0.07 in   Unknown
8:53 PM 62.1 °F 62.1 °F 100% 29.99 in - South 6.9 mph - 0.01 in   Unknown
9:53 PM 63.0 °F 62.1 °F 97% 29.95 in - SSE 6.9 mph - 0.01 in   Unknown
10:53 PM 63.0 °F 61.0 °F 93% 29.99 in - NNW 10.4 mph 18.4 mph 0.06 in   Unknown
11:53 PM 60.1 °F 59.0 °F 96% 29.96 in - Calm Calm - 0.30 in   Unknown